FFA266 ENTC-ENSB

Flight info

Callsign FFA266
Flight time 1h 24m
Altitude 36000
Route LOMVI P600 INPAR
Aircraft A319/M-SDE3FGHIRWY/LB1

Departure

Time 2026-05-07 19:11
Airport Tromsø Airport (ENTC)

Arrival

Time 2026-05-07 20:35
Airport Svalbard Airport, Longyear (ENSB)
Time Latitude Longitude Altitude Speed Heading
2026-05-07 18:30 69.67897 18.90865 36 ft 0 kts 283°
2026-05-07 19:01 69.67892 18.90921 36 ft 4 kts 283°
2026-05-07 19:01 69.67888 18.90980 35 ft 4 kts 283°
2026-05-07 19:01 69.67882 18.91052 37 ft 2 kts 283°
2026-05-07 19:02 69.67881 18.91058 37 ft 0 kts 283°
2026-05-07 19:04 69.67882 18.91054 37 ft 1 kts 284°
2026-05-07 19:04 69.67902 18.90991 36 ft 7 kts 330°
2026-05-07 19:04 69.67952 18.91035 34 ft 10 kts 46°
2026-05-07 19:04 69.67997 18.91226 34 ft 12 kts 44°
2026-05-07 19:05 69.68086 18.91338 32 ft 16 kts 14°
2026-05-07 19:05 69.68203 18.91419 30 ft 19 kts 13°
2026-05-07 19:05 69.68342 18.91499 27 ft 21 kts
2026-05-07 19:05 69.68471 18.91521 26 ft 19 kts 10°
2026-05-07 19:06 69.68605 18.91605 25 ft 21 kts 13°
2026-05-07 19:06 69.68780 18.91805 20 ft 11 kts 83°
2026-05-07 19:06 69.68775 18.91865 20 ft 0 kts 104°
2026-05-07 19:07 69.68775 18.91868 20 ft 1 kts 104°
2026-05-07 19:08 69.68765 18.91986 20 ft 10 kts 103°
2026-05-07 19:08 69.68779 18.92178 21 ft 12 kts 31°
2026-05-07 19:08 69.68873 18.92257 23 ft 16 kts 11°
2026-05-07 19:08 69.68984 18.92323 23 ft 20 kts 13°
2026-05-07 19:09 69.69140 18.92427 23 ft 23 kts 13°
2026-05-07 19:09 69.69290 18.92531 23 ft 20 kts 20°
2026-05-07 19:09 69.69371 18.92590 22 ft 10 kts 282°
2026-05-07 19:09 69.69320 18.92542 26 ft 8 kts 189°
2026-05-07 19:10 69.69254 18.92498 23 ft 19 kts 194°
2026-05-07 19:10 69.68934 18.92278 26 ft 81 kts 193°
2026-05-07 19:10 69.68171 18.91769 31 ft 143 kts 193°
2026-05-07 19:10 69.67163 18.91062 583 ft 150 kts 194°
2026-05-07 19:11 69.66150 18.90366 1318 ft 149 kts 193°
2026-05-07 19:11 69.65133 18.89704 2000 ft 153 kts 193°
2026-05-07 19:11 69.64021 18.88983 2314 ft 175 kts 193°
2026-05-07 19:11 69.62757 18.88160 2635 ft 198 kts 193°
2026-05-07 19:12 69.61370 18.87255 3283 ft 207 kts 193°
2026-05-07 19:12 69.59962 18.86336 4131 ft 209 kts 193°
2026-05-07 19:12 69.58606 18.84850 4956 ft 213 kts 220°
2026-05-07 19:12 69.57867 18.81258 5748 ft 216 kts 263°
2026-05-07 19:13 69.57970 18.76970 6618 ft 217 kts 281°
2026-05-07 19:13 69.58311 18.72745 7460 ft 218 kts 284°
2026-05-07 19:13 69.58790 18.68611 8302 ft 221 kts 301°
2026-05-07 19:13 69.59848 18.65438 9185 ft 224 kts 328°
2026-05-07 19:14 69.61311 18.63948 9925 ft 237 kts 353°
2026-05-07 19:14 69.63028 18.64822 10303 ft 265 kts 25°
2026-05-07 19:14 69.64690 18.67482 10630 ft 289 kts 29°
2026-05-07 19:14 69.66499 18.70524 10914 ft 313 kts 29°
2026-05-07 19:15 69.68424 18.73795 11401 ft 327 kts 29°
2026-05-07 19:15 69.70396 18.77151 12172 ft 332 kts 29°
2026-05-07 19:15 69.72401 18.80552 12957 ft 336 kts 28°
2026-05-07 19:15 69.74430 18.83981 13722 ft 341 kts 28°
2026-05-07 19:16 69.76490 18.87456 14419 ft 345 kts 28°
2026-05-07 19:16 69.78572 18.90971 15115 ft 348 kts 28°
2026-05-07 19:16 69.80680 18.94457 15820 ft 351 kts 24°
2026-05-07 19:16 69.82965 18.96967 16520 ft 351 kts 12°
2026-05-07 19:17 69.85376 18.98041 17218 ft 352 kts 360°
2026-05-07 19:17 69.87827 18.98266 17959 ft 354 kts 359°
2026-05-07 19:17 69.90297 18.98484 18675 ft 356 kts 359°
2026-05-07 19:17 69.92780 18.98714 19271 ft 358 kts 359°
2026-05-07 19:18 69.95283 18.98953 19901 ft 362 kts 360°
2026-05-07 19:18 69.97808 18.99197 20531 ft 365 kts 360°
2026-05-07 19:18 70.00355 18.99448 21138 ft 368 kts
2026-05-07 19:18 70.02919 18.99705 21740 ft 371 kts
2026-05-07 19:19 70.05511 18.99958 22323 ft 374 kts
2026-05-07 19:19 70.08116 18.99639 22903 ft 376 kts 351°
2026-05-07 19:19 70.10685 18.98030 23474 ft 378 kts 342°
2026-05-07 19:19 70.13161 18.95677 23969 ft 381 kts 341°
2026-05-07 19:20 70.15695 18.93254 24435 ft 384 kts 341°
2026-05-07 19:20 70.18251 18.90818 24894 ft 388 kts 341°
2026-05-07 19:20 70.20828 18.88369 25341 ft 391 kts 341°
2026-05-07 19:20 70.23423 18.85896 25776 ft 394 kts 341°
2026-05-07 19:21 70.26044 18.83387 26224 ft 397 kts 341°
2026-05-07 19:21 70.28678 18.80851 26661 ft 400 kts 341°
2026-05-07 19:21 70.31333 18.78286 27096 ft 403 kts 341°
2026-05-07 19:21 70.34008 18.75699 27523 ft 406 kts 341°
2026-05-07 19:22 70.36705 18.73089 27942 ft 409 kts 341°
2026-05-07 19:22 70.39424 18.70453 28343 ft 412 kts 341°
2026-05-07 19:22 70.42162 18.67793 28763 ft 415 kts 341°
2026-05-07 19:22 70.44916 18.65105 29170 ft 418 kts 341°
2026-05-07 19:23 70.47684 18.62386 29572 ft 421 kts 341°
2026-05-07 19:23 70.50476 18.59633 29968 ft 424 kts 341°
2026-05-07 19:23 70.53286 18.56855 30285 ft 427 kts 341°
2026-05-07 19:23 70.56080 18.54088 30574 ft 430 kts 341°
2026-05-07 19:24 70.58925 18.51268 30850 ft 432 kts 341°
2026-05-07 19:24 70.61791 18.48422 31145 ft 435 kts 341°
2026-05-07 19:24 70.64677 18.45558 31371 ft 438 kts 341°
2026-05-07 19:24 70.67583 18.42665 31646 ft 441 kts 341°
2026-05-07 19:25 70.70494 18.39754 31989 ft 441 kts 341°
2026-05-07 19:25 70.73406 18.36828 32360 ft 441 kts 341°
2026-05-07 19:25 70.76320 18.33881 32731 ft 441 kts 341°
2026-05-07 19:25 70.79234 18.30918 33072 ft 442 kts 341°
2026-05-07 19:26 70.82145 18.27951 33406 ft 443 kts 341°
2026-05-07 19:26 70.85071 18.24973 33730 ft 444 kts 341°
2026-05-07 19:26 70.88001 18.21989 34089 ft 444 kts 341°
2026-05-07 19:26 70.90935 18.18983 34409 ft 444 kts 341°
2026-05-07 19:27 70.93856 18.15979 34691 ft 444 kts 341°
2026-05-07 19:27 70.96789 18.12951 34955 ft 445 kts 341°
2026-05-07 19:27 70.99725 18.09905 35208 ft 446 kts 341°
2026-05-07 19:27 71.02664 18.06847 35483 ft 446 kts 341°
2026-05-07 19:28 71.05605 18.03787 35748 ft 446 kts 341°
2026-05-07 19:28 71.08509 18.00759 36002 ft 447 kts 341°
2026-05-07 19:28 71.14444 17.94537 36125 ft 456 kts 341°
2026-05-07 19:29 71.20472 17.88180 36125 ft 458 kts 341°
2026-05-07 19:29 71.26504 17.81760 36122 ft 459 kts 341°
2026-05-07 19:30 71.32549 17.75257 36131 ft 459 kts 341°
2026-05-07 19:30 71.38589 17.68756 36123 ft 459 kts 341°
2026-05-07 19:31 71.44627 17.62223 36133 ft 459 kts 341°
2026-05-07 19:31 71.50659 17.55643 36119 ft 459 kts 341°
2026-05-07 19:32 71.55671 17.50139 36123 ft 459 kts 341°
2026-05-07 19:32 71.61701 17.43462 36125 ft 459 kts 341°
2026-05-07 19:33 71.67731 17.36726 36137 ft 459 kts 341°
2026-05-07 19:33 71.73765 17.29967 36139 ft 460 kts 341°
2026-05-07 19:34 71.79756 17.23208 36146 ft 460 kts 341°
2026-05-07 19:34 71.85784 17.16376 36140 ft 460 kts 341°
2026-05-07 19:35 71.91806 17.09480 36135 ft 460 kts 340°
2026-05-07 19:35 71.97830 17.02515 36148 ft 460 kts 341°
2026-05-07 19:36 72.04074 16.98485 36146 ft 459 kts 354°
2026-05-07 19:36 72.10420 16.96120 36155 ft 459 kts 354°
2026-05-07 19:37 72.16760 16.93726 36147 ft 459 kts 353°
2026-05-07 19:37 72.23109 16.91305 36152 ft 459 kts 354°
2026-05-07 19:38 72.29456 16.88860 36150 ft 459 kts 354°
2026-05-07 19:38 72.35762 16.86413 36158 ft 459 kts 354°
2026-05-07 19:39 72.42113 16.83934 36168 ft 460 kts 354°
2026-05-07 19:39 72.48466 16.81441 36170 ft 460 kts 354°
2026-05-07 19:40 72.54821 16.78932 36168 ft 460 kts 354°
2026-05-07 19:40 72.61170 16.76430 36167 ft 460 kts 354°
2026-05-07 19:41 72.67527 16.73896 36175 ft 460 kts 354°
2026-05-07 19:41 72.73882 16.71327 36183 ft 460 kts 353°
2026-05-07 19:42 72.80239 16.68719 36180 ft 460 kts 354°
2026-05-07 19:42 72.86594 16.66124 36193 ft 460 kts 354°
2026-05-07 19:43 72.92955 16.63538 36197 ft 460 kts 354°
2026-05-07 19:43 72.99314 16.60918 36193 ft 460 kts 354°
2026-05-07 19:44 73.05629 16.58268 36198 ft 460 kts 354°
2026-05-07 19:44 73.11985 16.55561 36198 ft 460 kts 353°
2026-05-07 19:45 73.18336 16.52849 36202 ft 460 kts 354°
2026-05-07 19:45 73.24692 16.50131 36204 ft 460 kts 354°
2026-05-07 19:46 73.31049 16.47415 36215 ft 460 kts 354°
2026-05-07 19:46 73.37409 16.44671 36214 ft 460 kts 354°
2026-05-07 19:47 73.43761 16.41897 36229 ft 460 kts 354°
2026-05-07 19:47 73.50110 16.39105 36232 ft 459 kts 354°
2026-05-07 19:48 73.56403 16.36296 36228 ft 459 kts 354°
2026-05-07 19:48 73.62745 16.33437 36237 ft 459 kts 353°
2026-05-07 19:49 73.69084 16.30591 36237 ft 459 kts 353°
2026-05-07 19:49 73.75420 16.27721 36243 ft 459 kts 353°
2026-05-07 19:50 73.81752 16.24825 36241 ft 459 kts 353°
2026-05-07 19:50 73.88074 16.21927 36242 ft 458 kts 353°
2026-05-07 19:51 73.94400 16.18999 36252 ft 458 kts 353°
2026-05-07 19:51 74.00721 16.16031 36240 ft 458 kts 353°
2026-05-07 19:52 74.06998 16.13064 36248 ft 458 kts 353°
2026-05-07 19:52 74.13320 16.10072 36246 ft 458 kts 353°
2026-05-07 19:53 74.19645 16.07022 36257 ft 458 kts 353°
2026-05-07 19:53 74.25964 16.03969 36257 ft 458 kts 353°
2026-05-07 19:54 74.32288 16.00894 36255 ft 458 kts 353°
2026-05-07 19:54 74.38613 15.97795 36253 ft 458 kts 353°
2026-05-07 19:55 74.44931 15.94643 36255 ft 458 kts 353°
2026-05-07 19:55 74.51253 15.91516 36261 ft 458 kts 353°
2026-05-07 19:56 74.57566 15.88351 36263 ft 458 kts 353°
2026-05-07 19:56 74.63885 15.85129 36263 ft 458 kts 353°
2026-05-07 19:57 74.70196 15.81868 36270 ft 458 kts 353°
2026-05-07 19:57 74.76507 15.78642 36272 ft 458 kts 353°
2026-05-07 19:58 74.82781 15.75430 36272 ft 458 kts 353°
2026-05-07 19:58 74.89091 15.72141 36265 ft 458 kts 353°
2026-05-07 19:59 74.95403 15.68798 36271 ft 458 kts 353°
2026-05-07 19:59 75.01714 15.65419 36282 ft 458 kts 353°
2026-05-07 20:00 75.08019 15.62021 36283 ft 458 kts 353°
2026-05-07 20:00 75.14326 15.58616 36291 ft 457 kts 353°
2026-05-07 20:01 75.20632 15.55197 36292 ft 457 kts 353°
2026-05-07 20:01 75.26933 15.51731 36289 ft 457 kts 352°
2026-05-07 20:02 75.33237 15.48237 36297 ft 457 kts 353°
2026-05-07 20:02 75.39495 15.44741 36297 ft 457 kts 353°
2026-05-07 20:03 75.45788 15.41170 36307 ft 457 kts 353°
2026-05-07 20:03 75.52071 15.37557 36305 ft 457 kts 353°
2026-05-07 20:04 75.58362 15.33951 36310 ft 456 kts 353°
2026-05-07 20:04 75.64645 15.30366 36310 ft 456 kts 353°
2026-05-07 20:05 75.70935 15.26730 36312 ft 456 kts 352°
2026-05-07 20:05 75.77227 15.23018 36317 ft 457 kts 353°
2026-05-07 20:06 75.83508 15.19287 36310 ft 456 kts 352°
2026-05-07 20:06 75.89793 15.15495 36321 ft 456 kts 353°
2026-05-07 20:07 75.96073 15.11666 36319 ft 456 kts 352°
2026-05-07 20:07 76.02303 15.07848 36318 ft 456 kts 352°
2026-05-07 20:08 76.08578 15.03995 36319 ft 454 kts 352°
2026-05-07 20:08 76.14724 15.00185 36326 ft 443 kts 352°
2026-05-07 20:09 76.20819 14.96376 36058 ft 442 kts 352°
2026-05-07 20:09 76.23866 14.94474 35824 ft 443 kts 352°
2026-05-07 20:10 76.29975 14.90577 35625 ft 446 kts 352°
2026-05-07 20:10 76.36187 14.86586 35540 ft 455 kts 352°
2026-05-07 20:10 76.39310 14.84574 35268 ft 454 kts 352°
2026-05-07 20:11 76.42452 14.82525 34478 ft 460 kts 352°
2026-05-07 20:11 76.45612 14.80434 33949 ft 457 kts 352°
2026-05-07 20:11 76.48700 14.78374 33453 ft 453 kts 352°
2026-05-07 20:11 76.51837 14.76256 32930 ft 448 kts 352°
2026-05-07 20:12 76.54867 14.74191 32432 ft 444 kts 352°
2026-05-07 20:12 76.57904 14.72126 31921 ft 440 kts 352°
2026-05-07 20:12 76.60922 14.70077 31416 ft 437 kts 352°
2026-05-07 20:12 76.63902 14.68049 30918 ft 433 kts 352°
2026-05-07 20:13 76.66865 14.66036 30427 ft 429 kts 352°
2026-05-07 20:13 76.69800 14.64039 29888 ft 424 kts 352°
2026-05-07 20:13 76.72697 14.62055 29406 ft 418 kts 352°
2026-05-07 20:13 76.75553 14.60089 28955 ft 412 kts 352°
2026-05-07 20:14 76.78371 14.58143 28476 ft 407 kts 352°
2026-05-07 20:14 76.81146 14.56211 28030 ft 402 kts 352°
2026-05-07 20:14 76.83894 14.54285 27595 ft 397 kts 352°
2026-05-07 20:14 76.86598 14.52387 27183 ft 392 kts 352°
2026-05-07 20:15 76.89270 14.50506 26762 ft 387 kts 352°
2026-05-07 20:15 76.91922 14.48633 26359 ft 383 kts 353°
2026-05-07 20:15 76.94541 14.46773 25958 ft 380 kts 353°
2026-05-07 20:15 76.97139 14.44915 25565 ft 377 kts 353°
2026-05-07 20:16 76.99722 14.43069 25164 ft 375 kts 353°
2026-05-07 20:16 77.02286 14.41220 24775 ft 372 kts 353°
2026-05-07 20:16 77.04830 14.39369 24369 ft 370 kts 353°
2026-05-07 20:16 77.07369 14.37517 23965 ft 368 kts 353°
2026-05-07 20:17 77.09887 14.35681 23504 ft 365 kts 353°
2026-05-07 20:17 77.12379 14.33857 23085 ft 361 kts 353°
2026-05-07 20:17 77.14849 14.32049 22676 ft 357 kts 353°
2026-05-07 20:17 77.17301 14.31335 22261 ft 351 kts
2026-05-07 20:18 77.19710 14.32453 21850 ft 346 kts
2026-05-07 20:18 77.22054 14.33802 21441 ft 343 kts
2026-05-07 20:18 77.24413 14.35129 21040 ft 340 kts
2026-05-07 20:18 77.26744 14.36442 20623 ft 337 kts
2026-05-07 20:19 77.29063 14.37756 20211 ft 334 kts
2026-05-07 20:19 77.31366 14.39068 19794 ft 332 kts
2026-05-07 20:19 77.33652 14.40375 19388 ft 330 kts
2026-05-07 20:19 77.35932 14.41673 18981 ft 329 kts
2026-05-07 20:20 77.38191 14.42958 18574 ft 327 kts
2026-05-07 20:20 77.40441 14.44249 18136 ft 325 kts
2026-05-07 20:20 77.42676 14.45545 17730 ft 321 kts
2026-05-07 20:20 77.44878 14.46828 17326 ft 318 kts
2026-05-07 20:21 77.47074 14.48111 16896 ft 317 kts
2026-05-07 20:21 77.49259 14.49391 16508 ft 315 kts
2026-05-07 20:21 77.51419 14.50658 16120 ft 313 kts
2026-05-07 20:21 77.53568 14.51938 15735 ft 311 kts
2026-05-07 20:22 77.55710 14.53220 15348 ft 309 kts
2026-05-07 20:22 77.57835 14.54487 14953 ft 307 kts
2026-05-07 20:22 77.59944 14.55738 14585 ft 305 kts
2026-05-07 20:22 77.62016 14.56978 14214 ft 303 kts
2026-05-07 20:23 77.64102 14.58239 13803 ft 302 kts
2026-05-07 20:23 77.66176 14.59510 13426 ft 299 kts
2026-05-07 20:23 77.68230 14.60758 13060 ft 297 kts
2026-05-07 20:23 77.70272 14.61985 12694 ft 294 kts
2026-05-07 20:24 77.72293 14.63210 12330 ft 292 kts
2026-05-07 20:24 77.74303 14.64453 11968 ft 290 kts
2026-05-07 20:24 77.76296 14.65681 11612 ft 288 kts
2026-05-07 20:24 77.78283 14.66897 11251 ft 287 kts
2026-05-07 20:25 77.80256 14.68108 10894 ft 285 kts
2026-05-07 20:25 77.82224 14.69328 10541 ft 284 kts
2026-05-07 20:25 77.84167 14.70541 10284 ft 280 kts
2026-05-07 20:25 77.86078 14.71737 10142 ft 276 kts
2026-05-07 20:26 77.87979 14.72922 9902 ft 276 kts
2026-05-07 20:26 77.89879 14.74109 9541 ft 274 kts
2026-05-07 20:26 77.91765 14.75288 9175 ft 274 kts
2026-05-07 20:26 77.93652 14.76465 8805 ft 273 kts
2026-05-07 20:27 77.95535 14.77653 8424 ft 271 kts
2026-05-07 20:27 77.97385 14.78825 8073 ft 265 kts
2026-05-07 20:27 77.99197 14.79991 7719 ft 260 kts
2026-05-07 20:27 78.00969 14.81143 7368 ft 254 kts
2026-05-07 20:28 78.02701 14.82269 7037 ft 250 kts
2026-05-07 20:28 78.04412 14.83378 6697 ft 252 kts
2026-05-07 20:28 78.06152 14.84488 6335 ft 253 kts
2026-05-07 20:28 78.07902 14.83984 5990 ft 253 kts 351°
2026-05-07 20:29 78.09662 14.82530 5637 ft 253 kts 351°
2026-05-07 20:29 78.11393 14.81068 5085 ft 259 kts 350°
2026-05-07 20:29 78.13155 14.79572 4654 ft 253 kts 350°
2026-05-07 20:29 78.14863 14.78117 4311 ft 245 kts 350°
2026-05-07 20:30 78.16481 14.76741 3991 ft 227 kts 350°
2026-05-07 20:30 78.17973 14.75485 3683 ft 208 kts 351°
2026-05-07 20:30 78.19348 14.74611 3389 ft 192 kts 358°
2026-05-07 20:30 78.20661 14.74944 2998 ft 183 kts
2026-05-07 20:31 78.21462 14.75792 2863 ft 173 kts 15°
2026-05-07 20:31 78.22544 14.77784 2719 ft 162 kts 25°
2026-05-07 20:31 78.23499 14.80497 2606 ft 157 kts 34°
2026-05-07 20:31 78.24343 14.83880 2457 ft 157 kts 43°
2026-05-07 20:32 78.25069 14.87868 2296 ft 157 kts 52°
2026-05-07 20:32 78.25659 14.92388 2127 ft 158 kts 62°
2026-05-07 20:32 78.26096 14.97310 1939 ft 157 kts 71°
2026-05-07 20:32 78.26369 15.02505 1760 ft 157 kts 80°
2026-05-07 20:33 78.26472 15.07816 1554 ft 156 kts 89°
2026-05-07 20:33 78.26407 15.13125 1349 ft 155 kts 98°
2026-05-07 20:33 78.26203 15.17993 1138 ft 138 kts 104°
2026-05-07 20:33 78.25967 15.22413 967 ft 131 kts 105°
2026-05-07 20:34 78.25735 15.26681 797 ft 128 kts 105°
2026-05-07 20:34 78.25505 15.30877 633 ft 126 kts 105°
2026-05-07 20:34 78.25267 15.35019 466 ft 125 kts 107°
2026-05-07 20:34 78.25031 15.39136 255 ft 125 kts 106°
2026-05-07 20:35 78.24801 15.43210 96 ft 120 kts 105°
2026-05-07 20:35 78.24622 15.46363 90 ft 58 kts 105°
2026-05-07 20:35 78.24555 15.47614 89 ft 24 kts 105°
2026-05-07 20:35 78.24562 15.48139 92 ft 16 kts 40°
2026-05-07 20:36 78.24591 15.48618 88 ft 9 kts 79°
2026-05-07 20:36 78.24620 15.48793 90 ft 7 kts 44°
2026-05-07 20:36 78.24619 15.49064 90 ft 10 kts 94°
2026-05-07 20:36 78.24618 15.49446 89 ft 11 kts 102°
2026-05-07 20:37 78.24605 15.49763 90 ft 10 kts 86°
2026-05-07 20:37 78.24608 15.49819 90 ft 0 kts 71°